COSMOS 2251 DEB, 34963

Orbit data source: Space-Track

COSMOS 2251 DEB, 34963 is space debris in LEO originally from a launch on Wed, 16 Jun 1993 UTC launched from the Plesetsk Missile And Space Complex (PKMTR). The debris from Iridium 33, an American commercial communications satellite, has been tracked extensively since its accidental collision with the defunct Russian satellite Cosmos 2251 in 2009. This event, occurring at high speed in low Earth orbit (LEO), generated thousands of pieces of space debris, significantly increasing the risk of further collisions. The Iridium 33 debris cloud has impacted space traffic management and orbital debris mitigation strategies, making it a subject of ongoing study in space situational awareness.

Loading next visibility...
Identifier
34963, 1993-036AES
Orbit
LEO
Country
Flag of CISCIS
Related business
Manufacturer
Unknown
Mission
Spacecraft
Bus & Motor
Unknown
Mass
Unknown
Launch date (UTC)
1993-06-16 (33 years ago)
Launch vehicle
Unknown
Launch site
Plesetsk Missile And Space Complex (PKMTR)
Object type
Payload
Rocket body
Debris
Shape & HBR
Unknown shape, 0.1 m
Radar Cross Section
Small (<0.1 m²)

Expand to show TLE details & history
Last TLE update: 4 days ago

TLE from 4 days ago
0 COSMOS 2251 DEB
1 34963U 93036AES 26058.24465479  .00004250  00000-0  10482-2 0  9996
2 34963  74.1684 259.9025 0041035  72.0297 288.5332 14.51927779879118
Epoch: 2026-02-27T05:52Z
TLE epoch observation values (Epoch: 2026-02-27T05:52:18.173Z)
Latitude
0.00002°
Longitude
14.74288°
Altitude
712.846 km
Speed
7.504 km/s
True Right ascension
17h 19m 36s
True Declination
0° 00' 00"
Sunlit
Object was in daylight at epoch
Visualization orbit readout
Latitude
Unknown
Longitude
Unknown
Altitude
Unknown
Speed
Unknown
Apparent Right ascension
Unknown
Apparent Declination
Unknown
Sunlit
N/A
Visualization observer readout
Local Sidereal Time
18:13:15
Azimuth
Unknown
Elevation
Unknown
Doppler factor
Unknown
Orbital elements
Apogee altitude
746.069 km
Perigee altitude
687.839 km
Semi-major axis
7,095.091 km
Eccentricity
0.0041
Inclination
74.1684°
RAAN
259.9025°
Arg. of periapsis
72.0297°
True anomaly
288.08664°
Mean anomaly
288.5332°
Eccentric anomaly
288.30999°
Mean motion
3.63167 °/min
Orbital period
99.13 mins
BSTAR
0.0010482
Loading maneuver chart data...
Computing Atmospheric mass density...

Documentation

Showing up to 5 results
|